Time,TemperatureF,DewpointF,PressureIn,WindDirection,WindDirectionDegrees,WindSpeedMPH,WindSpeedGustMPH,Humidity,HourlyPrecipIn,Conditions,Clouds,dailyrainin,SoftwareType,DateUTC
2013-08-04 00:01:00,59.0,52.5,30.04,SW,225,3.0,3.0,79,0.00,,---,0.00,VWS V14.01,2013-08-04 04:01:00,
2013-08-04 00:02:00,59.0,52.5,30.04,SW,225,1.0,3.0,79,0.00,,---,0.00,VWS V14.01,2013-08-04 04:02:00,
2013-08-04 00:03:00,59.0,52.5,30.04,South,180,1.0,3.0,79,0.00,,---,0.00,VWS V14.01,2013-08-04 04:03:00,
2013-08-04 00:07:00,59.0,52.5,30.04,SSW,202,1.0,3.0,79,0.00,,---,0.00,VWS V14.01,2013-08-04 04:07:00,
2013-08-04 00:12:00,59.0,52.8,30.03,SSE,158,1.0,3.0,80,0.00,,---,0.00,VWS V14.01,2013-08-04 04:12:00,
2013-08-04 00:17:00,59.0,53.2,30.03,SSE,158,1.0,3.0,81,0.00,,---,0.00,VWS V14.01,2013-08-04 04:17:00,
2013-08-04 00:22:00,59.0,53.2,30.04,SW,225,3.0,3.0,81,0.00,,---,0.00,VWS V14.01,2013-08-04 04:22:00,
2013-08-04 00:27:00,58.0,52.2,30.04,SW,225,2.0,3.0,81,0.00,,---,0.00,VWS V14.01,2013-08-04 04:27:00,
2013-08-04 00:32:00,58.0,52.5,30.04,SW,225,1.0,3.0,82,0.00,,---,0.00,VWS V14.01,2013-08-04 04:32:00,
2013-08-04 00:37:00,58.0,52.5,30.04,SW,225,0.0,3.0,82,0.00,,---,0.00,VWS V14.01,2013-08-04 04:37:00,
2013-08-04 00:42:00,58.0,52.9,30.03,SW,225,0.0,1.0,83,0.00,,---,0.00,VWS V14.01,2013-08-04 04:42:00,
2013-08-04 00:47:00,58.0,52.9,30.03,SW,225,0.0,1.0,83,0.00,,---,0.00,VWS V14.01,2013-08-04 04:47:00,
2013-08-04 00:53:00,58.0,53.2,30.03,SW,225,0.0,1.0,84,0.00,,---,0.00,VWS V14.01,2013-08-04 04:53:00,
2013-08-04 00:58:00,57.0,52.2,30.04,SW,225,1.0,1.0,84,0.00,,---,0.00,VWS V14.01,2013-08-04 04:58:00,
2013-08-04 01:03:00,57.0,52.5,30.04,WSW,248,1.0,3.0,85,0.00,,---,0.00,VWS V14.01,2013-08-04 05:03:00,
2013-08-04 01:08:00,57.0,52.5,30.04,SW,225,1.0,3.0,85,0.00,,---,0.00,VWS V14.01,2013-08-04 05:08:00,
2013-08-04 01:13:00,57.0,52.9,30.04,SW,225,2.0,3.0,86,0.00,,---,0.00,VWS V14.01,2013-08-04 05:13:00,
2013-08-04 01:18:00,57.0,52.9,30.04,SW,225,1.0,3.0,86,0.00,,---,0.00,VWS V14.01,2013-08-04 05:18:00,
2013-08-04 01:23:00,57.0,53.2,30.04,WSW,248,2.0,3.0,87,0.00,,---,0.00,VWS V14.01,2013-08-04 05:23:00,
2013-08-04 01:28:00,57.0,53.2,30.04,WSW,248,3.0,3.0,87,0.00,,---,0.00,VWS V14.01,2013-08-04 05:28:00,
2013-08-04 01:33:00,56.0,52.2,30.04,WSW,248,1.0,5.0,87,0.00,,---,0.00,VWS V14.01,2013-08-04 05:33:00,
2013-08-04 01:38:00,56.0,52.2,30.04,WSW,248,1.0,5.0,87,0.00,,---,0.00,VWS V14.01,2013-08-04 05:38:00,
2013-08-04 01:43:00,56.0,52.5,30.04,WSW,248,0.0,1.0,88,0.00,,---,0.00,VWS V14.01,2013-08-04 05:43:00,
2013-08-04 01:48:00,56.0,52.5,30.04,SW,225,1.0,1.0,88,0.00,,---,0.00,VWS V14.01,2013-08-04 05:48:00,
2013-08-04 01:53:00,57.0,53.8,30.04,SSW,202,1.0,1.0,89,0.00,,---,0.00,VWS V14.01,2013-08-04 05:53:00,
2013-08-04 01:59:00,57.0,53.8,30.04,WSW,248,2.0,2.0,89,0.00,,---,0.00,VWS V14.01,2013-08-04 05:59:00,
2013-08-04 02:04:00,57.0,53.8,30.04,West,270,1.0,3.0,89,0.00,,---,0.00,VWS V14.01,2013-08-04 06:04:00,
2013-08-04 02:09:00,57.0,53.8,30.04,WSW,248,1.0,3.0,89,0.00,,---,0.00,VWS V14.01,2013-08-04 06:09:00,
2013-08-04 02:14:00,58.0,54.8,30.04,WSW,248,3.0,3.0,89,0.00,,---,0.00,VWS V14.01,2013-08-04 06:14:00,
2013-08-04 02:19:00,58.0,54.5,30.04,WSW,248,0.0,3.0,88,0.00,,---,0.00,VWS V14.01,2013-08-04 06:19:00,
2013-08-04 02:24:00,58.0,54.5,30.04,NW,315,3.0,6.0,88,0.00,,---,0.00,VWS V14.01,2013-08-04 06:24:00,
2013-08-04 02:29:00,58.0,54.5,30.04,West,270,3.0,6.0,88,0.00,,---,0.00,VWS V14.01,2013-08-04 06:29:00,
2013-08-04 02:34:00,59.0,55.8,30.04,NNW,338,5.0,10.0,89,0.00,,---,0.00,VWS V14.01,2013-08-04 06:34:00,
2013-08-04 02:39:00,59.0,55.5,30.04,NNW,338,5.0,10.0,88,0.00,,---,0.00,VWS V14.01,2013-08-04 06:39:00,
2013-08-04 02:44:00,59.0,55.1,30.04,NW,315,1.0,8.0,87,0.00,,---,0.00,VWS V14.01,2013-08-04 06:44:00,
2013-08-04 02:49:00,59.0,55.1,30.04,WNW,292,3.0,8.0,87,0.00,,---,0.00,VWS V14.01,2013-08-04 06:49:00,
2013-08-04 02:54:00,60.0,56.1,30.04,NNW,338,2.0,8.0,87,0.00,,---,0.00,VWS V14.01,2013-08-04 06:54:00,
2013-08-04 02:59:00,60.0,55.8,30.04,NNW,338,4.0,10.0,86,0.00,,---,0.00,VWS V14.01,2013-08-04 06:59:00,
2013-08-04 03:04:00,60.0,55.8,30.04,WNW,292,1.0,7.0,86,0.00,,---,0.00,VWS V14.01,2013-08-04 07:04:00,
2013-08-04 03:09:00,59.0,54.8,30.04,NNW,338,3.0,8.0,86,0.00,,---,0.00,VWS V14.01,2013-08-04 07:09:00,
2013-08-04 03:15:00,59.0,54.8,30.04,WNW,292,1.0,8.0,86,0.00,,---,0.00,VWS V14.01,2013-08-04 07:15:00,
2013-08-04 03:20:00,59.0,54.8,30.04,NW,315,1.0,8.0,86,0.00,,---,0.00,VWS V14.01,2013-08-04 07:20:00,
2013-08-04 03:25:00,60.0,55.8,30.04,NNW,338,8.0,8.0,86,0.00,,---,0.00,VWS V14.01,2013-08-04 07:25:00,
2013-08-04 03:30:00,60.0,55.8,30.04,NNW,338,1.0,8.0,86,0.00,,---,0.00,VWS V14.01,2013-08-04 07:30:00,
2013-08-04 03:35:00,60.0,55.8,30.05,NNE,22,6.0,10.0,86,0.00,,---,0.00,VWS V14.01,2013-08-04 07:35:00,
2013-08-04 03:40:00,59.0,54.8,30.04,NNW,338,5.0,10.0,86,0.00,,---,0.00,VWS V14.01,2013-08-04 07:40:00,
2013-08-04 03:45:00,59.0,54.8,30.04,NNW,338,8.0,12.0,86,0.00,,---,0.00,VWS V14.01,2013-08-04 07:45:00,
2013-08-04 03:50:00,59.0,54.8,30.04,NNW,338,4.0,12.0,86,0.00,,---,0.00,VWS V14.01,2013-08-04 07:50:00,
2013-08-04 03:55:00,59.0,54.8,30.04,NW,315,5.0,12.0,86,0.00,,---,0.00,VWS V14.01,2013-08-04 07:55:00,
2013-08-04 04:00:00,59.0,54.5,30.04,North,0,3.0,12.0,85,0.00,,---,0.00,VWS V14.01,2013-08-04 08:00:00,
2013-08-04 04:05:00,59.0,54.5,30.04,NNW,338,5.0,8.0,85,0.00,,---,0.00,VWS V14.01,2013-08-04 08:05:00,
2013-08-04 04:10:00,59.0,54.5,30.04,WNW,292,3.0,8.0,85,0.00,,---,0.00,VWS V14.01,2013-08-04 08:10:00,
2013-08-04 04:15:00,59.0,54.5,30.04,NW,315,6.0,10.0,85,0.00,,---,0.00,VWS V14.01,2013-08-04 08:15:00,
2013-08-04 04:20:00,58.0,53.2,30.04,NNW,338,7.0,11.0,84,0.00,,---,0.00,VWS V14.01,2013-08-04 08:20:00,
2013-08-04 04:26:00,58.0,52.9,30.04,WNW,292,3.0,11.0,83,0.00,,---,0.00,VWS V14.01,2013-08-04 08:26:00,
2013-08-04 04:31:00,59.0,53.5,30.04,NNW,338,1.0,11.0,82,0.00,,---,0.00,VWS V14.01,2013-08-04 08:31:00,
2013-08-04 04:36:00,59.0,53.2,30.04,North,0,2.0,11.0,81,0.00,,---,0.00,VWS V14.01,2013-08-04 08:36:00,
2013-08-04 04:41:00,59.0,53.2,30.04,NNW,338,7.0,10.0,81,0.00,,---,0.00,VWS V14.01,2013-08-04 08:41:00,
2013-08-04 04:46:00,59.0,53.2,30.04,NNW,338,4.0,11.0,81,0.00,,---,0.00,VWS V14.01,2013-08-04 08:46:00,
2013-08-04 04:51:00,59.0,53.5,30.04,NNW,338,2.0,12.0,82,0.00,,---,0.00,VWS V14.01,2013-08-04 08:51:00,
2013-08-04 04:56:00,59.0,53.8,30.04,NNW,338,3.0,12.0,83,0.00,,---,0.00,VWS V14.01,2013-08-04 08:56:00,
2013-08-04 05:01:00,58.0,52.9,30.04,North,0,5.0,6.0,83,0.00,,---,0.00,VWS V14.01,2013-08-04 09:01:00,
2013-08-04 05:06:00,58.0,53.2,30.04,WNW,292,1.0,10.0,84,0.00,,---,0.00,VWS V14.01,2013-08-04 09:06:00,
2013-08-04 05:11:00,58.0,53.2,30.04,NW,315,6.0,10.0,84,0.00,,---,0.00,VWS V14.01,2013-08-04 09:11:00,
2013-08-04 05:17:00,58.0,53.2,30.04,NW,315,3.0,10.0,84,0.00,,---,0.00,VWS V14.01,2013-08-04 09:17:00,
2013-08-04 05:22:00,58.0,53.5,30.05,NW,315,3.0,5.0,85,0.00,,---,0.00,VWS V14.01,2013-08-04 09:22:00,
2013-08-04 05:27:00,58.0,53.5,30.05,WSW,248,5.0,5.0,85,0.00,,---,0.00,VWS V14.01,2013-08-04 09:27:00,
2013-08-04 05:32:00,58.0,53.2,30.05,West,270,3.0,8.0,84,0.00,,---,0.00,VWS V14.01,2013-08-04 09:32:00,
2013-08-04 05:37:00,58.0,53.2,30.05,NNW,338,7.0,8.0,84,0.00,,---,0.00,VWS V14.01,2013-08-04 09:37:00,
2013-08-04 05:42:00,58.0,53.5,30.05,WNW,292,3.0,8.0,85,0.00,,---,0.00,VWS V14.01,2013-08-04 09:42:00,
2013-08-04 05:47:00,58.0,53.5,30.05,NW,315,3.0,8.0,85,0.00,,---,0.00,VWS V14.01,2013-08-04 09:47:00,
2013-08-04 05:52:00,58.0,53.8,30.05,NW,315,2.0,9.0,86,0.00,,---,0.00,VWS V14.01,2013-08-04 09:52:00,
2013-08-04 05:58:00,58.0,53.8,30.06,WNW,292,1.0,9.0,86,0.00,,---,0.00,VWS V14.01,2013-08-04 09:58:00,
2013-08-04 06:03:00,58.0,53.8,30.05,WNW,292,6.0,6.0,86,0.00,,---,0.00,VWS V14.01,2013-08-04 10:03:00,
2013-08-04 06:08:00,57.0,52.9,30.05,WNW,292,5.0,6.0,86,0.00,,---,0.00,VWS V14.01,2013-08-04 10:08:00,
2013-08-04 06:13:00,57.0,52.9,30.05,NNW,338,3.0,6.0,86,0.00,,---,0.00,VWS V14.01,2013-08-04 10:13:00,
2013-08-04 06:18:00,57.0,52.9,30.06,WNW,292,2.0,6.0,86,0.00,,---,0.00,VWS V14.01,2013-08-04 10:18:00,
2013-08-04 06:23:00,57.0,52.9,30.06,WNW,292,1.0,8.0,86,0.00,,---,0.00,VWS V14.01,2013-08-04 10:23:00,
2013-08-04 06:28:00,57.0,52.9,30.06,WNW,292,5.0,8.0,86,0.00,,---,0.00,VWS V14.01,2013-08-04 10:28:00,
2013-08-04 06:33:00,57.0,52.9,30.06,West,270,6.0,8.0,86,0.00,,---,0.00,VWS V14.01,2013-08-04 10:33:00,
2013-08-04 06:38:00,57.0,52.9,30.06,West,270,8.0,11.0,86,0.00,,---,0.00,VWS V14.01,2013-08-04 10:38:00,
2013-08-04 06:43:00,57.0,52.9,30.06,NW,315,5.0,7.0,86,0.00,,---,0.00,VWS V14.01,2013-08-04 10:43:00,
2013-08-04 06:48:00,57.0,52.9,30.06,NW,315,6.0,8.0,86,0.00,,---,0.00,VWS V14.01,2013-08-04 10:48:00,
2013-08-04 06:53:00,57.0,52.9,30.06,WNW,292,8.0,9.0,86,0.00,,---,0.00,VWS V14.01,2013-08-04 10:53:00,
2013-08-04 06:58:00,57.0,52.9,30.06,WNW,292,5.0,9.0,86,0.00,,---,0.00,VWS V14.01,2013-08-04 10:58:00,
2013-08-04 07:04:00,57.0,53.2,30.06,WNW,292,4.0,8.0,87,0.00,,---,0.00,VWS V14.01,2013-08-04 11:04:00,
2013-08-04 07:08:00,57.0,53.2,30.06,WNW,292,1.0,8.0,87,0.00,,---,0.00,VWS V14.01,2013-08-04 11:08:00,
2013-08-04 07:14:00,57.0,52.9,30.06,WNW,292,3.0,8.0,86,0.00,,---,0.00,VWS V14.01,2013-08-04 11:14:00,
2013-08-04 07:19:00,57.0,52.9,30.06,WNW,292,1.0,8.0,86,0.00,,---,0.00,VWS V14.01,2013-08-04 11:19:00,
2013-08-04 07:24:00,58.0,53.8,30.07,NW,315,6.0,7.0,86,0.00,,---,0.00,VWS V14.01,2013-08-04 11:24:00,
2013-08-04 07:29:00,58.0,53.5,30.07,NW,315,5.0,11.0,85,0.00,,---,0.00,VWS V14.01,2013-08-04 11:29:00,
2013-08-04 07:34:00,58.0,53.2,30.07,NNW,338,2.0,11.0,84,0.00,,---,0.00,VWS V14.01,2013-08-04 11:34:00,
2013-08-04 07:40:00,58.0,52.9,30.06,WSW,248,8.0,11.0,83,0.00,,---,0.00,VWS V14.01,2013-08-04 11:40:00,
2013-08-04 07:44:00,58.0,52.9,30.07,West,270,6.0,11.0,83,0.00,,---,0.00,VWS V14.01,2013-08-04 11:44:00,
2013-08-04 07:50:00,58.0,53.2,30.07,WSW,248,6.0,11.0,84,0.00,,---,0.00,VWS V14.01,2013-08-04 11:50:00,
2013-08-04 07:55:00,57.0,51.9,30.07,WNW,292,4.0,11.0,83,0.00,,---,0.00,VWS V14.01,2013-08-04 11:55:00,
2013-08-04 08:00:00,57.0,52.2,30.07,WNW,292,9.0,12.0,84,0.00,,---,0.00,VWS V14.01,2013-08-04 12:00:00,
2013-08-04 08:05:00,57.0,52.2,30.07,West,270,5.0,10.0,84,0.00,,---,0.00,VWS V14.01,2013-08-04 12:05:00,
2013-08-04 08:10:00,57.0,52.2,30.07,West,270,7.0,10.0,84,0.00,,---,0.00,VWS V14.01,2013-08-04 12:10:00,
2013-08-04 08:15:00,57.0,52.5,30.07,WNW,292,10.0,11.0,85,0.00,,---,0.00,VWS V14.01,2013-08-04 12:15:00,
2013-08-04 08:20:00,57.0,52.5,30.08,WNW,292,5.0,13.0,85,0.00,,---,0.00,VWS V14.01,2013-08-04 12:20:00,
2013-08-04 08:25:00,58.0,53.5,30.08,WNW,292,5.0,10.0,85,0.00,,---,0.00,VWS V14.01,2013-08-04 12:25:00,
2013-08-04 08:30:00,58.0,53.5,30.08,WNW,292,3.0,10.0,85,0.00,,---,0.00,VWS V14.01,2013-08-04 12:30:00,
2013-08-04 08:36:00,59.0,54.5,30.08,West,270,3.0,10.0,85,0.00,,---,0.00,VWS V14.01,2013-08-04 12:36:00,
2013-08-04 08:40:00,59.0,53.8,30.08,NNW,338,5.0,14.0,83,0.00,,---,0.00,VWS V14.01,2013-08-04 12:40:00,
2013-08-04 08:46:00,59.0,53.5,30.08,West,270,6.0,9.0,82,0.00,,---,0.00,VWS V14.01,2013-08-04 12:46:00,
2013-08-04 08:51:00,59.0,53.5,30.07,NNW,338,7.0,11.0,82,0.00,,---,0.00,VWS V14.01,2013-08-04 12:51:00,
2013-08-04 08:56:00,60.0,54.2,30.08,West,270,6.0,13.0,81,0.00,,---,0.00,VWS V14.01,2013-08-04 12:56:00,
2013-08-04 09:00:00,60.0,53.8,30.08,WNW,292,11.0,12.0,80,0.00,,---,0.00,VWS V14.01,2013-08-04 13:00:00,
2013-08-04 09:06:00,60.0,53.5,30.08,WNW,292,3.0,12.0,79,0.00,,---,0.00,VWS V14.01,2013-08-04 13:06:00,
2013-08-04 09:11:00,60.0,53.5,30.08,NW,315,5.0,12.0,79,0.00,,---,0.00,VWS V14.01,2013-08-04 13:11:00,
2013-08-04 09:16:00,60.0,53.8,30.08,NNW,338,6.0,12.0,80,0.00,,---,0.00,VWS V14.01,2013-08-04 13:16:00,
2013-08-04 09:21:00,60.0,54.2,30.09,West,270,3.0,5.0,81,0.00,,---,0.00,VWS V14.01,2013-08-04 13:21:00,
2013-08-04 09:26:00,60.0,53.8,30.08,NW,315,6.0,13.0,80,0.00,,---,0.00,VWS V14.01,2013-08-04 13:26:00,
2013-08-04 09:31:00,60.0,53.8,30.09,NNW,338,4.0,13.0,80,0.00,,---,0.00,VWS V14.01,2013-08-04 13:31:00,
2013-08-04 09:37:00,61.0,54.8,30.08,WNW,292,6.0,13.0,80,0.00,,---,0.00,VWS V14.01,2013-08-04 13:37:00,
2013-08-04 09:42:00,62.0,55.1,30.08,SW,225,3.0,8.0,78,0.00,,---,0.00,VWS V14.01,2013-08-04 13:42:00,
2013-08-04 09:47:00,62.0,54.0,30.09,WNW,292,3.0,13.0,75,0.00,,---,0.00,VWS V14.01,2013-08-04 13:47:00,
2013-08-04 09:52:00,62.0,54.0,30.09,NW,315,5.0,13.0,75,0.00,,---,0.00,VWS V14.01,2013-08-04 13:52:00,
2013-08-04 09:57:00,62.0,54.0,30.09,NNW,338,1.0,14.0,75,0.00,,---,0.00,VWS V14.01,2013-08-04 13:57:00,
2013-08-04 10:02:00,62.0,54.4,30.09,North,0,5.0,8.0,76,0.00,,---,0.00,VWS V14.01,2013-08-04 14:02:00,
2013-08-04 10:08:00,62.0,54.7,30.09,WNW,292,4.0,9.0,77,0.00,,---,0.00,VWS V14.01,2013-08-04 14:08:00,
2013-08-04 10:13:00,63.0,55.3,30.09,North,0,3.0,10.0,76,0.00,,---,0.00,VWS V14.01,2013-08-04 14:13:00,
2013-08-04 10:17:00,62.0,53.6,30.09,NW,315,3.0,11.0,74,0.00,,---,0.00,VWS V14.01,2013-08-04 14:17:00,
2013-08-04 10:23:00,62.0,53.3,30.09,NNW,338,6.0,11.0,73,0.00,,---,0.00,VWS V14.01,2013-08-04 14:23:00,
2013-08-04 10:28:00,62.0,54.0,30.10,NNW,338,9.0,11.0,75,0.00,,---,0.00,VWS V14.01,2013-08-04 14:28:00,
2013-08-04 10:33:00,62.0,54.0,30.10,NNW,338,4.0,12.0,75,0.00,,---,0.00,VWS V14.01,2013-08-04 14:33:00,
2013-08-04 10:38:00,63.0,55.3,30.10,WNW,292,6.0,14.0,76,0.00,,---,0.00,VWS V14.01,2013-08-04 14:38:00,
2013-08-04 10:43:00,62.0,54.4,30.10,North,0,6.0,12.0,76,0.00,,---,0.00,VWS V14.01,2013-08-04 14:43:00,
2013-08-04 10:48:00,63.0,54.6,30.09,NNW,338,3.0,12.0,74,0.00,,---,0.00,VWS V14.01,2013-08-04 14:48:00,
2013-08-04 10:53:00,63.0,53.5,30.10,NW,315,5.0,13.0,71,0.00,,---,0.00,VWS V14.01,2013-08-04 14:53:00,
2013-08-04 10:58:00,64.0,54.4,30.10,West,270,3.0,13.0,71,0.00,,---,0.00,VWS V14.01,2013-08-04 14:58:00,
2013-08-04 11:03:00,64.0,54.8,30.10,NW,315,5.0,10.0,72,0.00,,---,0.00,VWS V14.01,2013-08-04 15:03:00,
2013-08-04 11:08:00,64.0,54.8,30.10,NNW,338,3.0,11.0,72,0.00,,---,0.00,VWS V14.01,2013-08-04 15:08:00,
2013-08-04 11:13:00,65.0,55.4,30.10,NNW,338,7.0,11.0,71,0.00,,---,0.00,VWS V14.01,2013-08-04 15:13:00,
2013-08-04 11:18:00,65.0,55.0,30.10,WNW,292,6.0,13.0,70,0.00,,---,0.00,VWS V14.01,2013-08-04 15:18:00,
2013-08-04 11:23:00,65.0,54.6,30.11,WNW,292,8.0,14.0,69,0.00,,---,0.00,VWS V14.01,2013-08-04 15:23:00,
2013-08-04 11:28:00,64.0,53.6,30.11,West,270,6.0,14.0,69,0.00,,---,0.00,VWS V14.01,2013-08-04 15:28:00,
2013-08-04 11:33:00,65.0,56.2,30.11,NW,315,10.0,14.0,73,0.00,,---,0.00,VWS V14.01,2013-08-04 15:33:00,
2013-08-04 11:39:00,65.0,54.6,30.10,North,0,2.0,14.0,69,0.00,,---,0.00,VWS V14.01,2013-08-04 15:39:00,
2013-08-04 11:44:00,65.0,54.6,30.10,North,0,3.0,13.0,69,0.00,,---,0.00,VWS V14.01,2013-08-04 15:44:00,
2013-08-04 11:49:00,66.0,55.2,30.10,NW,315,1.0,13.0,68,0.00,,---,0.00,VWS V14.01,2013-08-04 15:49:00,
2013-08-04 11:54:00,66.0,54.3,30.10,WNW,292,1.0,14.0,66,0.00,,---,0.00,VWS V14.01,2013-08-04 15:54:00,
2013-08-04 11:59:00,66.0,53.9,30.11,NW,315,10.0,14.0,65,0.00,,---,0.00,VWS V14.01,2013-08-04 15:59:00,
2013-08-04 12:04:00,66.0,54.3,30.10,NNW,338,5.0,16.0,66,0.00,,---,0.00,VWS V14.01,2013-08-04 16:04:00,
2013-08-04 12:09:00,65.0,54.2,30.11,WNW,292,7.0,18.0,68,0.00,,---,0.00,VWS V14.01,2013-08-04 16:09:00,
2013-08-04 12:14:00,65.0,54.2,30.11,WNW,292,6.0,18.0,68,0.00,,---,0.00,VWS V14.01,2013-08-04 16:14:00,
2013-08-04 12:19:00,65.0,53.0,30.11,NNW,338,3.0,18.0,65,0.00,,---,0.00,VWS V14.01,2013-08-04 16:19:00,
2013-08-04 12:24:00,65.0,53.8,30.11,WNW,292,1.0,10.0,67,0.00,,---,0.00,VWS V14.01,2013-08-04 16:24:00,
2013-08-04 12:29:00,66.0,56.0,30.11,WSW,248,5.0,11.0,70,0.00,,---,0.00,VWS V14.01,2013-08-04 16:29:00,
2013-08-04 12:34:00,67.0,56.1,30.11,NW,315,4.0,11.0,68,0.00,,---,0.00,VWS V14.01,2013-08-04 16:34:00,
2013-08-04 12:39:00,67.0,54.4,30.11,WNW,292,11.0,14.0,64,0.00,,---,0.00,VWS V14.01,2013-08-04 16:39:00,
2013-08-04 12:44:00,67.0,54.4,30.11,WNW,292,11.0,14.0,64,0.00,,---,0.00,VWS V14.01,2013-08-04 16:44:00,
2013-08-04 12:50:00,67.0,54.0,30.11,WNW,292,10.0,15.0,63,0.00,,---,0.00,VWS V14.01,2013-08-04 16:50:00,
2013-08-04 12:55:00,67.0,53.6,30.11,WNW,292,9.0,15.0,62,0.00,,---,0.00,VWS V14.01,2013-08-04 16:55:00,
2013-08-04 12:59:00,67.0,54.0,30.11,NNE,22,3.0,15.0,63,0.00,,---,0.00,VWS V14.01,2013-08-04 16:59:00,
2013-08-04 13:05:00,67.0,53.6,30.11,NNW,338,9.0,11.0,62,0.00,,---,0.00,VWS V14.01,2013-08-04 17:05:00,
2013-08-04 13:10:00,67.0,54.0,30.10,NW,315,3.0,13.0,63,0.00,,---,0.00,VWS V14.01,2013-08-04 17:10:00,
2013-08-04 13:15:00,67.0,54.4,30.10,NNW,338,5.0,15.0,64,0.00,,---,0.00,VWS V14.01,2013-08-04 17:15:00,
2013-08-04 13:20:00,67.0,54.4,30.10,NNW,338,9.0,17.0,64,0.00,,---,0.00,VWS V14.01,2013-08-04 17:20:00,
2013-08-04 13:25:00,67.0,54.4,30.11,NW,315,7.0,13.0,64,0.00,,---,0.00,VWS V14.01,2013-08-04 17:25:00,
2013-08-04 13:30:00,68.0,55.8,30.10,NW,315,8.0,15.0,65,0.00,,---,0.00,VWS V14.01,2013-08-04 17:30:00,
2013-08-04 13:35:00,68.0,55.0,30.11,WNW,292,8.0,16.0,63,0.00,,---,0.00,VWS V14.01,2013-08-04 17:35:00,
2013-08-04 13:40:00,67.0,54.0,30.11,WNW,292,11.0,18.0,63,0.00,,---,0.00,VWS V14.01,2013-08-04 17:40:00,
2013-08-04 13:45:00,67.0,53.1,30.11,NNW,338,4.0,13.0,61,0.00,,---,0.00,VWS V14.01,2013-08-04 17:45:00,
2013-08-04 13:50:00,68.0,55.0,30.11,NNW,338,10.0,13.0,63,0.00,,---,0.00,VWS V14.01,2013-08-04 17:50:00,
2013-08-04 13:55:00,67.0,53.1,30.11,WNW,292,6.0,17.0,61,0.00,,---,0.00,VWS V14.01,2013-08-04 17:55:00,
2013-08-04 14:00:00,68.0,55.0,30.11,NNW,338,3.0,3.0,63,0.00,,---,0.00,VWS V14.01,2013-08-04 18:00:00,
2013-08-04 14:06:00,68.0,53.6,30.11,NW,315,4.0,14.0,60,0.00,,---,0.00,VWS V14.01,2013-08-04 18:06:00,
2013-08-04 14:11:00,68.0,53.6,30.11,WNW,292,6.0,18.0,60,0.00,,---,0.00,VWS V14.01,2013-08-04 18:11:00,
2013-08-04 14:16:00,68.0,51.2,30.11,WNW,292,10.0,18.0,55,0.00,,---,0.00,VWS V14.01,2013-08-04 18:16:00,
2013-08-04 14:21:00,68.0,52.7,30.11,WNW,292,5.0,13.0,58,0.00,,---,0.00,VWS V14.01,2013-08-04 18:21:00,
2013-08-04 14:26:00,68.0,51.2,30.12,NW,315,5.0,18.0,55,0.00,,---,0.00,VWS V14.01,2013-08-04 18:26:00,
2013-08-04 14:31:00,68.0,53.2,30.12,WNW,292,7.0,18.0,59,0.00,,---,0.00,VWS V14.01,2013-08-04 18:31:00,
2013-08-04 14:36:00,69.0,53.2,30.12,WNW,292,6.0,18.0,57,0.00,,---,0.00,VWS V14.01,2013-08-04 18:36:00,
2013-08-04 14:41:00,69.0,53.2,30.11,WNW,292,13.0,13.0,57,0.00,,---,0.00,VWS V14.01,2013-08-04 18:41:00,
2013-08-04 14:46:00,69.0,52.7,30.12,NW,315,11.0,16.0,56,0.00,,---,0.00,VWS V14.01,2013-08-04 18:46:00,
2013-08-04 14:51:00,69.0,52.2,30.12,NE,45,5.0,16.0,55,0.00,,---,0.00,VWS V14.01,2013-08-04 18:51:00,
2013-08-04 14:56:00,68.0,51.7,30.11,NNW,338,3.0,16.0,56,0.00,,---,0.00,VWS V14.01,2013-08-04 18:56:00,
2013-08-04 15:01:00,69.0,53.2,30.11,WNW,292,14.0,18.0,57,0.00,,---,0.00,VWS V14.01,2013-08-04 19:01:00,
2013-08-04 15:06:00,69.0,53.2,30.11,WNW,292,4.0,18.0,57,0.00,,---,0.00,VWS V14.01,2013-08-04 19:06:00,
2013-08-04 15:11:00,69.0,52.2,30.11,ESE,112,3.0,18.0,55,0.00,,---,0.00,VWS V14.01,2013-08-04 19:11:00,
2013-08-04 15:16:00,70.0,53.6,30.11,NNW,338,6.0,18.0,56,0.00,,---,0.00,VWS V14.01,2013-08-04 19:16:00,
2013-08-04 15:21:00,70.0,53.6,30.11,NNW,338,3.0,7.0,56,0.00,,---,0.00,VWS V14.01,2013-08-04 19:21:00,
2013-08-04 15:27:00,70.0,53.1,30.11,WNW,292,6.0,11.0,55,0.00,,---,0.00,VWS V14.01,2013-08-04 19:27:00,
2013-08-04 15:32:00,70.0,52.6,30.10,WNW,292,9.0,16.0,54,0.00,,---,0.00,VWS V14.01,2013-08-04 19:32:00,
2013-08-04 15:37:00,70.0,51.6,30.10,NW,315,4.0,16.0,52,0.00,,---,0.00,VWS V14.01,2013-08-04 19:37:00,
2013-08-04 15:42:00,70.0,53.1,30.11,NNW,338,5.0,6.0,55,0.00,,---,0.00,VWS V14.01,2013-08-04 19:42:00,
2013-08-04 15:47:00,70.0,52.6,30.10,WSW,248,6.0,13.0,54,0.00,,---,0.00,VWS V14.01,2013-08-04 19:47:00,
2013-08-04 15:52:00,70.0,52.6,30.10,NW,315,4.0,13.0,54,0.00,,---,0.00,VWS V14.01,2013-08-04 19:52:00,
2013-08-04 15:57:00,70.0,51.6,30.11,WNW,292,9.0,17.0,52,0.00,,---,0.00,VWS V14.01,2013-08-04 19:57:00,
2013-08-04 16:02:00,70.0,52.1,30.10,NNW,338,5.0,11.0,53,0.00,,---,0.00,VWS V14.01,2013-08-04 20:02:00,
2013-08-04 16:07:00,70.0,51.6,30.10,WNW,292,9.0,12.0,52,0.00,,---,0.00,VWS V14.01,2013-08-04 20:07:00,
2013-08-04 16:13:00,70.0,52.1,30.11,NNW,338,5.0,14.0,53,0.00,,---,0.00,VWS V14.01,2013-08-04 20:13:00,
2013-08-04 16:18:00,70.0,51.6,30.11,WNW,292,7.0,16.0,52,0.00,,---,0.00,VWS V14.01,2013-08-04 20:18:00,
2013-08-04 16:23:00,70.0,51.1,30.10,NNW,338,5.0,11.0,51,0.00,,---,0.00,VWS V14.01,2013-08-04 20:23:00,
2013-08-04 16:27:00,70.0,53.1,30.10,NW,315,3.0,11.0,55,0.00,,---,0.00,VWS V14.01,2013-08-04 20:27:00,
2013-08-04 16:33:00,70.0,52.1,30.10,WNW,292,5.0,13.0,53,0.00,,---,0.00,VWS V14.01,2013-08-04 20:33:00,
2013-08-04 16:38:00,69.0,50.7,30.11,West,270,11.0,18.0,52,0.00,,---,0.00,VWS V14.01,2013-08-04 20:38:00,
2013-08-04 16:43:00,70.0,52.6,30.10,NW,315,5.0,11.0,54,0.00,,---,0.00,VWS V14.01,2013-08-04 20:43:00,
2013-08-04 16:48:00,70.0,53.1,30.10,NNE,22,2.0,11.0,55,0.00,,---,0.00,VWS V14.01,2013-08-04 20:48:00,
2013-08-04 16:53:00,70.0,52.6,30.10,NNW,338,6.0,14.0,54,0.00,,---,0.00,VWS V14.01,2013-08-04 20:53:00,
2013-08-04 16:58:00,69.0,52.2,30.10,North,0,5.0,14.0,55,0.00,,---,0.00,VWS V14.01,2013-08-04 20:58:00,
2013-08-04 17:03:00,70.0,53.6,30.10,WNW,292,5.0,13.0,56,0.00,,---,0.00,VWS V14.01,2013-08-04 21:03:00,
2013-08-04 17:09:00,70.0,53.6,30.10,NNW,338,6.0,13.0,56,0.00,,---,0.00,VWS V14.01,2013-08-04 21:09:00,
2013-08-04 17:14:00,70.0,53.1,30.10,West,270,6.0,13.0,55,0.00,,---,0.00,VWS V14.01,2013-08-04 21:14:00,
2013-08-04 17:19:00,70.0,53.6,30.10,NW,315,11.0,13.0,56,0.00,,---,0.00,VWS V14.01,2013-08-04 21:19:00,
2013-08-04 17:24:00,70.0,53.6,30.10,WNW,292,11.0,12.0,56,0.00,,---,0.00,VWS V14.01,2013-08-04 21:24:00,
2013-08-04 17:29:00,69.0,52.7,30.10,NW,315,3.0,17.0,56,0.00,,---,0.00,VWS V14.01,2013-08-04 21:29:00,
2013-08-04 17:34:00,69.0,53.6,30.10,NNW,338,6.0,17.0,58,0.00,,---,0.00,VWS V14.01,2013-08-04 21:34:00,
2013-08-04 17:39:00,69.0,54.5,30.10,WNW,292,5.0,17.0,60,0.00,,---,0.00,VWS V14.01,2013-08-04 21:39:00,
2013-08-04 17:44:00,69.0,53.6,30.10,WNW,292,6.0,9.0,58,0.00,,---,0.00,VWS V14.01,2013-08-04 21:44:00,
2013-08-04 17:49:00,69.0,53.6,30.10,NW,315,3.0,12.0,58,0.00,,---,0.00,VWS V14.01,2013-08-04 21:49:00,
2013-08-04 17:54:00,69.0,54.1,30.11,NW,315,9.0,13.0,59,0.00,,---,0.00,VWS V14.01,2013-08-04 21:54:00,
2013-08-04 17:59:00,69.0,53.6,30.11,SW,225,3.0,13.0,58,0.00,,---,0.00,VWS V14.01,2013-08-04 21:59:00,
2013-08-04 18:05:00,69.0,53.2,30.11,NW,315,7.0,13.0,57,0.00,,---,0.00,VWS V14.01,2013-08-04 22:05:00,
2013-08-04 18:10:00,69.0,53.6,30.11,WNW,292,8.0,13.0,58,0.00,,---,0.00,VWS V14.01,2013-08-04 22:10:00,
2013-08-04 18:15:00,68.0,53.2,30.11,SW,225,1.0,18.0,59,0.00,,---,0.00,VWS V14.01,2013-08-04 22:15:00,
2013-08-04 18:20:00,68.0,53.6,30.11,NW,315,3.0,18.0,60,0.00,,---,0.00,VWS V14.01,2013-08-04 22:20:00,
2013-08-04 18:25:00,68.0,54.1,30.11,North,0,3.0,13.0,61,0.00,,---,0.00,VWS V14.01,2013-08-04 22:25:00,
2013-08-04 18:30:00,68.0,53.6,30.11,West,270,5.0,13.0,60,0.00,,---,0.00,VWS V14.01,2013-08-04 22:30:00,
2013-08-04 18:35:00,68.0,54.5,30.10,WNW,292,11.0,14.0,62,0.00,,---,0.00,VWS V14.01,2013-08-04 22:35:00,
2013-08-04 18:40:00,67.0,54.4,30.10,WNW,292,11.0,14.0,64,0.00,,---,0.00,VWS V14.01,2013-08-04 22:40:00,
2013-08-04 18:45:00,67.0,54.4,30.11,West,270,7.0,12.0,64,0.00,,---,0.00,VWS V14.01,2013-08-04 22:45:00,
2013-08-04 18:50:00,67.0,54.9,30.11,WNW,292,8.0,17.0,65,0.00,,---,0.00,VWS V14.01,2013-08-04 22:50:00,
2013-08-04 18:55:00,66.0,54.7,30.11,North,0,2.0,17.0,67,0.00,,---,0.00,VWS V14.01,2013-08-04 22:55:00,
2013-08-04 19:00:00,66.0,54.7,30.11,WNW,292,6.0,8.0,67,0.00,,---,0.00,VWS V14.01,2013-08-04 23:00:00,
2013-08-04 19:06:00,66.0,55.2,30.10,North,0,2.0,14.0,68,0.00,,---,0.00,VWS V14.01,2013-08-04 23:06:00,
2013-08-04 19:11:00,66.0,55.5,30.10,WNW,292,10.0,14.0,69,0.00,,---,0.00,VWS V14.01,2013-08-04 23:11:00,
2013-08-04 19:16:00,66.0,55.2,30.10,WNW,292,10.0,17.0,68,0.00,,---,0.00,VWS V14.01,2013-08-04 23:16:00,
2013-08-04 19:21:00,66.0,54.7,30.10,North,0,5.0,14.0,67,0.00,,---,0.00,VWS V14.01,2013-08-04 23:21:00,
2013-08-04 19:26:00,66.0,55.2,30.10,NNW,338,3.0,14.0,68,0.00,,---,0.00,VWS V14.01,2013-08-04 23:26:00,
2013-08-04 19:32:00,66.0,56.0,30.11,NNW,338,3.0,14.0,70,0.00,,---,0.00,VWS V14.01,2013-08-04 23:32:00,
2013-08-04 19:37:00,66.0,56.3,30.11,NW,315,3.0,14.0,71,0.00,,---,0.00,VWS V14.01,2013-08-04 23:37:00,
2013-08-04 19:42:00,66.0,56.3,30.11,WNW,292,8.0,8.0,71,0.00,,---,0.00,VWS V14.01,2013-08-04 23:42:00,
2013-08-04 19:47:00,66.0,56.7,30.11,WNW,292,3.0,8.0,72,0.00,,---,0.00,VWS V14.01,2013-08-04 23:47:00,
2013-08-04 19:52:00,65.0,55.8,30.11,NW,315,5.0,13.0,72,0.00,,---,0.00,VWS V14.01,2013-08-04 23:52:00,
2013-08-04 19:57:00,65.0,55.8,30.11,WNW,292,8.0,13.0,72,0.00,,---,0.00,VWS V14.01,2013-08-04 23:57:00,
2013-08-04 20:02:00,65.0,55.4,30.11,WNW,292,3.0,13.0,71,0.00,,---,0.00,VWS V14.01,2013-08-05 00:02:00,
2013-08-04 20:07:00,65.0,55.8,30.11,West,270,8.0,13.0,72,0.00,,---,0.00,VWS V14.01,2013-08-05 00:07:00,
2013-08-04 20:12:00,65.0,55.8,30.10,NW,315,5.0,13.0,72,0.00,,---,0.00,VWS V14.01,2013-08-05 00:12:00,
2013-08-04 20:17:00,65.0,56.2,30.11,NNW,338,1.0,13.0,73,0.00,,---,0.00,VWS V14.01,2013-08-05 00:17:00,
2013-08-04 20:22:00,64.0,55.6,30.11,NW,315,3.0,7.0,74,0.00,,---,0.00,VWS V14.01,2013-08-05 00:22:00,
2013-08-04 20:27:00,64.0,55.6,30.11,WNW,292,5.0,8.0,74,0.00,,---,0.00,VWS V14.01,2013-08-05 00:27:00,
2013-08-04 20:32:00,64.0,55.9,30.11,West,270,3.0,8.0,75,0.00,,---,0.00,VWS V14.01,2013-08-05 00:32:00,
2013-08-04 20:37:00,64.0,55.9,30.11,West,270,6.0,10.0,75,0.00,,---,0.00,VWS V14.01,2013-08-05 00:37:00,
2013-08-04 20:43:00,64.0,55.9,30.11,WSW,248,3.0,5.0,75,0.00,,---,0.00,VWS V14.01,2013-08-05 00:43:00,
2013-08-04 20:48:00,64.0,56.3,30.11,West,270,6.0,8.0,76,0.00,,---,0.00,VWS V14.01,2013-08-05 00:48:00,
2013-08-04 20:53:00,63.0,55.3,30.11,WNW,292,3.0,8.0,76,0.00,,---,0.00,VWS V14.01,2013-08-05 00:53:00,
2013-08-04 20:58:00,63.0,55.3,30.11,WSW,248,7.0,8.0,76,0.00,,---,0.00,VWS V14.01,2013-08-05 00:58:00,
2013-08-04 21:03:00,63.0,55.3,30.11,WSW,248,6.0,7.0,76,0.00,,---,0.00,VWS V14.01,2013-08-05 01:03:00,
2013-08-04 21:08:00,63.0,55.3,30.11,NW,315,3.0,7.0,76,0.00,,---,0.00,VWS V14.01,2013-08-05 01:08:00,
2013-08-04 21:13:00,63.0,55.7,30.11,WNW,292,1.0,7.0,77,0.00,,---,0.00,VWS V14.01,2013-08-05 01:13:00,
2013-08-04 21:18:00,62.0,55.1,30.11,WNW,292,2.0,7.0,78,0.00,,---,0.00,VWS V14.01,2013-08-05 01:18:00,
2013-08-04 21:23:00,62.0,55.1,30.12,WNW,292,2.0,5.0,78,0.00,,---,0.00,VWS V14.01,2013-08-05 01:23:00,
2013-08-04 21:29:00,62.0,55.1,30.12,West,270,4.0,5.0,78,0.00,,---,0.00,VWS V14.01,2013-08-05 01:29:00,
2013-08-04 21:34:00,62.0,55.1,30.12,West,270,2.0,5.0,78,0.00,,---,0.00,VWS V14.01,2013-08-05 01:34:00,
2013-08-04 21:39:00,61.0,54.1,30.12,NW,315,1.0,5.0,78,0.00,,---,0.00,VWS V14.01,2013-08-05 01:39:00,
2013-08-04 21:44:00,61.0,54.5,30.12,WNW,292,2.0,5.0,79,0.00,,---,0.00,VWS V14.01,2013-08-05 01:44:00,
2013-08-04 21:49:00,61.0,54.5,30.13,West,270,4.0,5.0,79,0.00,,---,0.00,VWS V14.01,2013-08-05 01:49:00,
2013-08-04 21:54:00,61.0,54.8,30.13,WNW,292,1.0,5.0,80,0.00,,---,0.00,VWS V14.01,2013-08-05 01:54:00,
2013-08-04 21:59:00,61.0,54.8,30.13,WNW,292,3.0,5.0,80,0.00,,---,0.00,VWS V14.01,2013-08-05 01:59:00,
2013-08-04 22:04:00,61.0,54.8,30.13,NNW,338,1.0,5.0,80,0.00,,---,0.00,VWS V14.01,2013-08-05 02:04:00,
2013-08-04 22:09:00,61.0,55.1,30.13,NNW,338,1.0,6.0,81,0.00,,---,0.00,VWS V14.01,2013-08-05 02:09:00,
2013-08-04 22:15:00,61.0,54.8,30.13,NNW,338,6.0,8.0,80,0.00,,---,0.00,VWS V14.01,2013-08-05 02:15:00,
2013-08-04 22:20:00,61.0,53.4,30.13,NNW,338,3.0,10.0,76,0.00,,---,0.00,VWS V14.01,2013-08-05 02:20:00,
2013-08-04 22:25:00,61.0,52.3,30.13,NW,315,1.0,10.0,73,0.00,,---,0.00,VWS V14.01,2013-08-05 02:25:00,
2013-08-04 22:29:00,61.0,52.3,30.13,NW,315,3.0,10.0,73,0.00,,---,0.00,VWS V14.01,2013-08-05 02:29:00,
2013-08-04 22:34:00,61.0,52.3,30.13,NNW,338,5.0,10.0,73,0.00,,---,0.00,VWS V14.01,2013-08-05 02:34:00,
2013-08-04 22:40:00,61.0,52.3,30.13,NE,45,1.0,10.0,73,0.00,,---,0.00,VWS V14.01,2013-08-05 02:40:00,
2013-08-04 22:45:00,61.0,52.7,30.13,NNW,338,1.0,5.0,74,0.00,,---,0.00,VWS V14.01,2013-08-05 02:45:00,
2013-08-04 22:50:00,61.0,52.7,30.13,NNW,338,3.0,6.0,74,0.00,,---,0.00,VWS V14.01,2013-08-05 02:50:00,
2013-08-04 22:55:00,60.0,52.1,30.14,ENE,68,1.0,6.0,75,0.00,,---,0.00,VWS V14.01,2013-08-05 02:55:00,
2013-08-04 23:00:00,60.0,52.4,30.14,North,0,3.0,6.0,76,0.00,,---,0.00,VWS V14.01,2013-08-05 03:00:00,
2013-08-04 23:05:00,60.0,52.4,30.14,NNE,22,0.0,4.0,76,0.00,,---,0.00,VWS V14.01,2013-08-05 03:05:00,
2013-08-04 23:10:00,60.0,52.8,30.14,NNW,338,1.0,4.0,77,0.00,,---,0.00,VWS V14.01,2013-08-05 03:10:00,
2013-08-04 23:15:00,59.0,51.8,30.14,NNW,338,1.0,5.0,77,0.00,,---,0.00,VWS V14.01,2013-08-05 03:15:00,
2013-08-04 23:20:00,59.0,51.8,30.14,WNW,292,1.0,5.0,77,0.00,,---,0.00,VWS V14.01,2013-08-05 03:20:00,
2013-08-04 23:25:00,59.0,51.8,30.14,WNW,292,1.0,4.0,77,0.00,,---,0.00,VWS V14.01,2013-08-05 03:25:00,
2013-08-04 23:31:00,59.0,52.5,30.14,WSW,248,1.0,4.0,79,0.00,,---,0.00,VWS V14.01,2013-08-05 03:31:00,
2013-08-04 23:36:00,59.0,52.5,30.14,WNW,292,1.0,4.0,79,0.00,,---,0.00,VWS V14.01,2013-08-05 03:36:00,
2013-08-04 23:41:00,58.0,51.5,30.14,SW,225,1.0,2.0,79,0.00,,---,0.00,VWS V14.01,2013-08-05 03:41:00,
2013-08-04 23:45:00,58.0,51.9,30.14,SW,225,2.0,3.0,80,0.00,,---,0.00,VWS V14.01,2013-08-05 03:45:00,
2013-08-04 23:51:00,58.0,51.9,30.14,SW,225,3.0,4.0,80,0.00,,---,0.00,VWS V14.01,2013-08-05 03:51:00,
2013-08-04 23:56:00,57.0,51.2,30.14,SW,225,2.0,4.0,81,0.00,,---,0.00,VWS V14.01,2013-08-05 03:56:00,